Honolulu, HI

8:56 PM HST on March 26, 2017 (GMT -1000)
Honolulu International

Weather History for PHNL - January, 2011

Change the Weather History Date:

Friday, January 28, 2011

  Actual Average Record
Temperature  
Mean Temperature 77 °F 73 °F  
Max Temperature 82 °F 80 °F 84 °F (1970)
Min Temperature 72 °F 66 °F 56 °F (1975)
Degree Days  
Heating Degree Days 0 0  
Month to date heating degree days 0 0  
Since 1 July heating degree days 0 0  
Cooling Degree Days 12 8  
Month to date cooling degree days 245 226  
Year to date cooling degree days 245 226  
Growing Degree Days 28 (Base 50)    
Moisture  
Dew Point 63 °F    
Average Humidity 60    
Maximum Humidity 73    
Minimum Humidity 47    
Precipitation  
Precipitation 0.00 in 0.06 in 1.35 in (1971)
Month to date precipitation 2.80 2.12  
Year to date precipitation 2.80 2.12  
Snow  
Snow 0.00 in - - ()
Month to date snowfall 0.0  
Since 1 July snowfall 0.0  
Snow Depth 0.00 in    
Sea Level Pressure  
Sea Level Pressure 30.05 in    
Wind  
Wind Speed 11 mph (ENE)    
Max Wind Speed 20 mph    
Max Gust Speed 24 mph    
Visibility 10 miles    
Events      
T = Trace of Precipitation, MM = Missing Value Source: NWS Daily Summary

Daily Weather History Graph

Daily Weather History Graph

Search for Another Location

Airport or City:

Trip Planner

Search our weather history database for the weather conditions in past years. The results will help you decide how hot, cold, wet, or windy it might be!

Date:

Astronomy

Jan. 28, 2011 Rise Set
Actual Time 7:10 AM HST 6:19 PM HST
Civil Twilight 6:46 AM HST 6:42 PM HST
Nautical Twilight 6:20 AM HST 7:09 PM HST
Astronomical Twilight 5:53 AM HST 7:35 PM HST
Moon 2:43 AM HST (1/28) 1:48 PM HST (1/28)
Length of Visible Light 11h 55m
Length of Day
11h 09m
Waning Crescent, 25% of the Moon is Illuminated
Jan 28
Waning Crescent
Feb 2
New
Feb 10
First Quarter
Feb 17
Full
Feb 24
Last Quarter

Hourly Weather History & Observations

Time (HST) Temp. Heat Index Dew Point Humidity Pressure Visibility Wind Dir Wind Speed Gust Speed Precip Events Conditions
12:53 AM 73.0 °F - 63.0 °F 71% 30.08 in 10.0 mi NE 11.5 mph - N/A   Scattered Clouds
1:53 AM 73.0 °F - 63.0 °F 71% 30.06 in 10.0 mi ENE 12.7 mph - N/A   Partly Cloudy
2:53 AM 73.0 °F - 63.0 °F 71% 30.05 in 10.0 mi ENE 9.2 mph - N/A   Partly Cloudy
3:53 AM 73.0 °F - 62.1 °F 68% 30.04 in 10.0 mi ENE 10.4 mph - N/A   Scattered Clouds
4:53 AM 73.0 °F - 63.0 °F 71% 30.03 in 10.0 mi NE 9.2 mph - N/A   Scattered Clouds
5:53 AM 73.0 °F - 63.0 °F 71% 30.04 in 10.0 mi ENE 11.5 mph - N/A   Mostly Cloudy
6:53 AM 73.0 °F - 63.0 °F 71% 30.06 in 10.0 mi ENE 13.8 mph - N/A   Mostly Cloudy
7:53 AM 73.0 °F - 63.0 °F 71% 30.08 in 10.0 mi ENE 9.2 mph 19.6 mph N/A   Scattered Clouds
8:53 AM 75.9 °F - 63.0 °F 64% 30.09 in 10.0 mi ENE 15.0 mph - N/A   Scattered Clouds
9:53 AM 78.1 °F - 63.0 °F 60% 30.10 in 10.0 mi NE 12.7 mph - N/A   Scattered Clouds
10:53 AM 80.1 °F 80.9 °F 60.1 °F 50% 30.09 in 10.0 mi ENE 13.8 mph 24.2 mph N/A   Scattered Clouds
11:53 AM 81.0 °F 81.3 °F 59.0 °F 47% 30.07 in 10.0 mi East 11.5 mph 18.4 mph N/A   Scattered Clouds
12:53 PM 82.0 °F 82.7 °F 61.0 °F 49% 30.04 in 10.0 mi ENE 11.5 mph 19.6 mph N/A   Scattered Clouds
1:53 PM 79.0 °F - 64.0 °F 60% 30.01 in 10.0 mi ENE 13.8 mph - N/A   Mostly Cloudy
2:53 PM 81.0 °F 81.7 °F 61.0 °F 50% 29.99 in 10.0 mi East 11.5 mph - N/A   Mostly Cloudy
3:08 PM 80.6 °F 81.8 °F 62.6 °F 54% 29.99 in 10.0 mi Variable 6.9 mph - N/A   Mostly Cloudy
3:53 PM 78.1 °F - 63.0 °F 60% 29.99 in 10.0 mi NE 9.2 mph - N/A   Mostly Cloudy
4:53 PM 78.1 °F - 63.0 °F 60% 30.00 in 10.0 mi ENE 11.5 mph - N/A   Mostly Cloudy
5:53 PM 77.0 °F - 63.0 °F 62% 30.01 in 10.0 mi ENE 13.8 mph 17.3 mph N/A   Scattered Clouds
6:53 PM 75.0 °F - 63.0 °F 66% 30.04 in 10.0 mi East 6.9 mph - N/A   Mostly Cloudy
7:53 PM 73.9 °F - 64.0 °F 71% 30.06 in 10.0 mi NE 8.1 mph - N/A   Scattered Clouds
8:53 PM 73.9 °F - 64.0 °F 71% 30.07 in 10.0 mi NE 6.9 mph - N/A   Scattered Clouds
9:53 PM 73.0 °F - 64.0 °F 73% 30.08 in 10.0 mi ENE 5.8 mph - N/A   Partly Cloudy
10:53 PM 73.0 °F - 64.0 °F 73% 30.07 in 10.0 mi NE 6.9 mph - N/A   Scattered Clouds
11:53 PM 73.9 °F - 64.0 °F 71% 30.07 in 10.0 mi ENE 6.9 mph - N/A   Mostly Cloudy